Location: Kikino
(54.4440°N, 112.0940°W)
Time: 17:46:29
(UTC+00:00)

A-11 Canister half - Pass Details

Date: 24 May 2024
Orbit: 1525 x 1683 km, 47.3° (Epoch: 12 June)

Event Time Altitude Azimuth Distance (km) Brightness Sun altitude
Rises 06:18:56 0° 250° (WSW) 4,703 11.5 -13.4°
Reaches altitude 10° 06:22:01 10° 246° (WSW) 3,735 10.9 -13.5°
Maximum altitude 06:31:09 56° 172° (S) 1,838 9.1 -13.8°
Drops below altitude 10° 06:40:37 10° 98° (E) 3,858 10.9 -14.1°
Sets 06:43:51 0° 95° (E) 4,865 11.5 -14.2°
